Tracking 19795 objects as of 19-Jul-2019
HD Live streaming from Space Station
objects crossing your sky now

SL-8 DEB

Track SL-8 DEB now!
10-day predictions


NORAD ID: 29284
Int'l Code: 1981-120N
Perigee: 1,649.5 km
Apogee: 1,704.9 km
Inclination: 83.0 °
Period: 119.8 minutes
Semi major axis: 8048 km
RCS: 0.0077 m2 (small)
Launch date: December 17, 1981
Source: Commonwealth of Independent States (former USSR) (CIS)
Launch site: PLESETSK MISSILE AND SPACE COMPLEX (PKMTR)

Note: This is SATELLITE DEBRIS
aabbcc
Your satellite tracking list
Your tracking list is empty




NASA's NSSDC Master Catalog

Two Line Element Set (TLE):
1 29284U 81120N   19198.93000212  .00000140  00000-0  15705-2 0  9997
2 29284  82.9601  63.0777 0034461 287.5728 133.1406 12.02415589652200
Source of the keplerian elements: AFSPC